Location: The Saddle
(36.8333°N, 80.3417°W)
Time: 10:19:31
(UTC-04:00)

Courier 1B - Pass Details

Date: 28 January 2022
Orbit: 962 x 1209 km, 28.3° (Epoch: 26 May)

Event Time Altitude Azimuth Distance (km) Brightness Sun altitude
Rises 00:36:07 0° 263° (W) 4,097 - -71.4°
Reaches altitude 10° 00:40:22 10° 242° (WSW) 3,107 - -71.3°
Maximum altitude 00:44:33 16° 209° (SSW) 2,674 - -71.2°
Drops below altitude 10° 00:48:39 10° 176° (S) 3,026 - -71.1°
Sets 00:52:44 0° 155° (SSE) 3,934 - -70.9°
